sat.trackr.live / text

‹ back to catalog

AMC-15

NORAD 28446 · 2004-041A

PAYLOAD ACTIVE UNKNOWN

§ Identity

Operator
Country
SES
Launch date
2004-10-14
Launch site
TYMSC
Launch vehicle
Mass (kg)
RCS (m²)
22.41

Purposes: comms

External: N2YO · Heavens-Above · Gunter

§ Orbital elements

Epoch: 2026-09-19T21:36:17.160768Z

Period
1,436.09 min
Inclination
0.0283°
Eccentricity
0.0001991
Mean motion
1.00272564 rev/d
Perigee alt
35,778.0 km
Apogee alt
35,794.8 km
Semi-major
42,164.5 km
B*
0.0000e+0
RAAN
310.5564°
Arg perigee
207.1971°
Mean anomaly
60.0854°
Rev number
8,025

§ Raw data

AMC-151 28446U 04041A   26262.90019862 -.00000093  00000+0  00000+0 0  99972 28446   0.0283 310.5564 0001991 207.1971  60.0854  1.00272564 80255

JSON: /api/v1/satellites/28446 · /tle

For live sub-satellite position, see the globe view (requires WebGL).

§ Visibility from observer

Set your observer location to see the next 7 days of passes ≥ 10°. The values pass through the URL so the page stays shareable.

No JS? Fill the form by hand. The geolocation button needs JavaScript.